Regional Weather Roundup
Issued by NWS Albany, NY

Home | Current Version | Previous Version | Graphics & Text | Print | Product List | Glossary Off
Versions: 1 2 3 4 5 6 7 8 9 10 11 12 13 14 15 16 17 18 19 20 21 22 23 24 25 26 27 28 29 30 31 32 33 34 35 36 37 38 39 40 41 42 43 44 45 46 47 48 49 50

000
ASUS41 KALY 200810
RWRALY

NEW YORK STATE HOURLY WEATHER ROUNDUP
NATIONAL WEATHER SERVICE ALBANY NY
400 AM EDT FRI APR 20 2018

NOTE: "FAIR" INDICATES FEW OR NO CLOUDS BELOW 12,000 FEET WITH NO
SIGNIFICANT WEATHER AND/OR NO OBSTRUCTIONS TO VISIBILITY.

NYZ032-033-038>043-046>054-057>066-NYZ062>081-082-084-200900-
EAST


CITY           SKY/WX    TMP DP  RH WIND       PRES   REMARKS
ALBANY         CLOUDY    34  23  64 NW12      30.01R WCI  25
GLENS FALLS    FAIR      33  22  63 NW10      29.98R WCI  25
POUGHKEEPSIE   FAIR      35  18  49 W13G22    30.02R WCI  26
NEWBURGH       CLEAR     34  25  69 W9        30.01S WCI  26
MONTGOMERY     FAIR      34  21  59 NW8       30.02R WCI  27
WHITE PLAINS   FAIR      34  21  59 W12G20    30.01R WCI  25
ISLIP          FAIR      36  25  64 W12       30.01R WCI  28
NEW YORK CITY  FAIR      39  25  57 NW16      30.06R WCI  30
CENTRAL PARK   MOCLDY    37  24  59 NW7       30.08R WCI  32
$$

NYZ005>009-017-018-044>046-055-056-200900-
CENTRAL


CITY           SKY/WX    TMP DP  RH WIND       PRES   REMARKS
FULTON         CLOUDY    33  22  63 NW12      30.14R WCI  24
SYRACUSE       FLURRIES  31  25  78 NW10      30.13R WCI  22
ROME           CLOUDY    30  24  78 W9        30.11R WCI  22
ELMIRA         FLURRIES  32  23  69 NW9       30.14R WCI  24
BINGHAMTON     LGT SNOW  26  23  88 NW10G20   30.05R FOG     WCI  16
MONTICELLO       N/A    N/A N/A N/A MISG        N/A
$$

NYZ026>034-041>043-087-200900-
NORTH


CITY           SKY/WX    TMP DP  RH WIND       PRES   REMARKS
WATERTOWN      FAIR      29  23  78 W8        30.12R WCI  21
FORT DRUM      NOT AVBL
OGDENSBURG     FAIR      32  24  73 NW7       30.09R WCI  26
MASSENA        CLOUDY    33  25  72 W15       30.07R WCI  23
SARANAC LAKE   CLOUDY    26  23  88 VRB3      29.95R
PLATTSBURGH    CLOUDY    34  24  67 NW10G22   29.96R WCI  26
$$

NYZ001>004-010>016-019>021-085-200900-
WEST


CITY           SKY/WX    TMP DP  RH WIND       PRES   REMARKS
NIAGARA FALLS  FAIR      32  19  58 N8        30.24R WCI  25
BUFFALO        FAIR      30  22  72 NW6       30.23R WCI  24
DUNKIRK        FAIR      32  25  75 NW9       30.26R WCI  24
JAMESTOWN      FAIR      27  22  81 NW9       30.20R WCI  18
WELLSVILLE     MIX PCPN  29  23  78 NW13      30.13R WCI  19
ROCHESTER      FAIR      31  21  66 NW8       30.20R WCI  23
PENN YAN       CLOUDY    31  20  63 NW8       30.15R WCI  23
$$

             KEY
       WCI = WIND CHILL INDEX
       VSB = VISIBILITY
       HX  = HEAT INDEX
$$



USA.gov is the U.S. government's official web portal to all federal, state and local government web resources and services.